This is the latest recevied weather packets stored in our database for station/object W4MJZ-1. If no packets are shown the sender has not sent any weather packets the latest 1 day(s).
| Time | Temp. | Humidity | Pressure | Rain* | Wind** | Luminosity | Snow |
|---|---|---|---|---|---|---|---|
| 1778010273 | 23.33° C | 37% | 1018.8 hPa | 0 mm | 4.92 m/s, 255° | - | - |
| 1778010139 | 23.33° C | 37% | 1018.8 hPa | 0 mm | 4.92 m/s, 255° | - | - |
| 1778010017 | 23.33° C | 37% | 1018.8 hPa | 0 mm | 4.47 m/s, 242° | - | - |
| 1778009839 | 23.33° C | 37% | 1018.8 hPa | 0 mm | 4.47 m/s, 242° | - | - |
| 1778009679 | 23.33° C | 38% | 1018.5 hPa | 0 mm | 4.47 m/s, 225° | - | - |
| 1778009539 | 23.33° C | 38% | 1018.5 hPa | 0 mm | 4.47 m/s, 225° | - | - |
| 1778009425 | 23.33° C | 38% | 1018.8 hPa | 0 mm | 4.47 m/s, 221° | - | - |
| 1778009240 | 23.33° C | 38% | 1018.8 hPa | 0 mm | 4.47 m/s, 221° | - | - |
| 1778009103 | 23.33° C | 38% | 1018.5 hPa | 0 mm | 4.47 m/s, 201° | - | - |
| 1778008939 | 23.33° C | 38% | 1018.5 hPa | 0 mm | 4.47 m/s, 201° | - | - |
| 1778008846 | 22.78° C | 39% | 1019.2 hPa | 0 mm | 4.92 m/s, 218° | - | - |
| 1778008640 | 22.78° C | 39% | 1019.2 hPa | 0 mm | 4.92 m/s, 218° | - | - |
| 1778008488 | 22.78° C | 38% | 1018.8 hPa | 0 mm | 4.47 m/s, 243° | - | - |
| 1778008340 | 22.78° C | 38% | 1018.8 hPa | 0 mm | 4.47 m/s, 243° | - | - |
| 1778008217 | 22.78° C | 39% | 1019.2 hPa | 0 mm | 4.02 m/s, 242° | - | - |
| 1778008039 | 22.78° C | 39% | 1019.2 hPa | 0 mm | 4.02 m/s, 242° | - | - |
| 1778007895 | 22.78° C | 41% | 1019.2 hPa | 0 mm | 3.58 m/s, 240° | - | - |
| 1778007739 | 22.78° C | 41% | 1019.2 hPa | 0 mm | 3.58 m/s, 240° | - | - |
| 1778007609 | 23.33° C | 41% | 1019.2 hPa | 0 mm | 4.02 m/s, 224° | - | - |
| 1778007440 | 23.33° C | 41% | 1019.2 hPa | 0 mm | 4.02 m/s, 224° | - | - |
| 1778007376 | 22.78° C | 42% | 1019.6 hPa | 0 mm | 4.47 m/s, 232° | - | - |
| 1778007140 | 22.78° C | 42% | 1019.6 hPa | 0 mm | 4.47 m/s, 232° | - | - |
| 1778007035 | 22.22° C | 42% | 1019.2 hPa | 0 mm | 4.02 m/s, 247° | - | - |
| 1778006839 | 22.22° C | 42% | 1019.2 hPa | 0 mm | 4.02 m/s, 247° | - | - |
| 1778006717 | 22.78° C | 45% | 1019.6 hPa | 0 mm | 3.13 m/s, 243° | - | - |
* Rain latest hour (hover to see other rain measurements)
** Current wind speed in m/s (hover to see current wind gust speed)